星链-3754 (STARLINK-3754 )

导读 | 星芒AI

STARLINK-3754 是 SpaceX Starlink 项目中的一颗低轨通信卫星,属于第 11 批(Group 11)部署的 53 颗卫星之一,于 2021 年 11 月 19 日由猎鹰 9 号火箭发射升空。该卫星运行在约 550 公里的轨道高度,旨在为全球用户提供高速互联网服务。作为 Starlink 卫星群的一部分,STARLINK-3754 采用先进推进系统和激光通信技术,支持星座间高速数据传输,提升网络稳定性和覆盖范围。

基本信息
目录编号:
52350
目录名称:
STARLINK-3754
国际标识:
2022-045V
轨道中心:
EARTH
卫星名称:
星链-3754
卫星全名:
星链-3754 (STARLINK-3754 )
卫星状态:
在轨 (已飞行1285 天)
发射日期:
2022-04-29 UTC
国别 :
美国 (US)
星等 :
--
轨道信息
数据来源 国际轨道数据
星历时间: 2025-11-04T18:28:18+0800
9小时前
查看轨道信息
半长轴: 6917.854km
偏心率: 0.0001583
轨道倾角: 53.220°
近地点辐角 79.983°
升交点赤经 41.404°
平近点角 280.134°
近地点: 538.623km
远地点: 540.815km
周期: 95.437分钟
每日圈数: 15.088487
详细信息
固有亮度:
5
最大亮度:
2.5
卫星平台:
Starlink v1.5
覆盖范围:
全球
运营商:
太空探索技术公司
运营商所在国:
美国
制造商(研发单位):
太空探索技术公司
制造商所在国:
美国
使用方式:
暂无
卫星简介
星链(Starlink)计划是由太空探索技术公司(SpaceX)提出的一个巨型低轨卫星互联网星座项目,计划在2019年至2024年间在太空搭建由约1.2万颗卫星组成的“星链”网络,其中1584颗将部署在地球上空550千米处的近地轨道,并从2020年开始工作。该卫星仍在工作。
2D轨道图
3D轨道图
轨道高度分析图
轨道倾角分析图
轨道综合分析图
查看轨道综合分析图